Location: G�ndlingen
(48.0142°N, 7.6396°E)
Time: 02:06:36
(UTC+00:00)

Thor Agena Rocket - Pass Details

Date: 05 July 2020
Orbit: 759 x 808 km, 99.0° (Epoch: 04 August)

Event Time Altitude Azimuth Distance (km) Brightness Sun altitude
Rises 22:23:08 0° 15° (NNE) 3,270 7.8 -17.5°
Reaches altitude 10° 22:25:28 10° 16° (NNE) 2,331 6.9 -17.7°
Maximum altitude 22:30:36 86° 104° (ESE) 775 3.4 -17.9°
Enters shadow 22:33:17 29° 194° (SSW) 1,382 4.3 -18.0°
